This demonstration page uses our WeatherBlox Daily Observations layout. Learn more.

Left ArrowRight Arrow

Hourly Observations for September 8, 2019

Temp ( °F °C ) Dew Point ( °F °C ) Humidity (%) Winds ( mph kmh ) Pressure ( in mb ) Visibility ( mi km ) Precip ( " mm )
12:53 am 00:53 Clear 63 17.2 61 16.1 93 93 NE 3 6 29.92 1013 9 14 0.00 0.00
1:53 am 01:53 Clear 62 16.7 60 15.6 93 93 Calm 29.93 1013 9 14 0.00 0.00
2:53 am 02:53 Clear 61 16.1 59 15 93 93 Calm 29.92 1013 8 13 0.00 0.00
3:53 am 03:53 Clear 61 16.1 59 15 93 93 N 5 7 29.92 1013 8 13 0.00 0.00
4:04 am 04:04 Partly Cloudy 61 16 59 15 94 94 ENE 6 9 29.92 1013 7 11 0.00 0.00
4:12 am 04:12 Mostly Cloudy 61 16.1 59 15 93 93 NNE 6 9 29.92 1013 7 11 0.00 0.00
4:34 am 04:34 Cloudy 61 16 61 16 100 100 N 8 13 29.91 1013 7 11 0.00 0.00
4:46 am 04:46 Cloudy with Mist and Fog 62 16.7 60 15.6 93 93 NNE 8 13 29.91 1013 2 3 0.00 0.00
4:53 am 04:53 Cloudy with Fog 62 16.7 60 15.6 93 93 NNE 7 11 29.91 1013 0 0 0.00 0.00
5:53 am 05:53 Mostly Cloudy with Fog 62 16.7 60 15.6 93 93 NE 6 9 29.92 1013 0 0 0.00 0.00
6:53 am 06:53 Mostly Cloudy with Fog 62 16.7 61 16.1 96 96 NE 7 11 29.94 1014 0 0 0.00 0.00
7:53 am 07:53 Mostly Cloudy with Fog 62 16.7 61 16.1 96 96 NNE 3 6 29.97 1015 0 0 0.00 0.00
8:53 am 08:53 Cloudy with Fog 63 17.2 61 16.1 93 93 NNE 9 15 29.98 1015 1 1 0.00 0.00
9:53 am 09:53 Cloudy with Mist and Fog 63 17.2 62 16.7 97 97 NNE 6 9 30.00 1016 1 2 0.00 0.00
10:03 am 10:03 Cloudy with Mist and Fog 63 17.2 62 16.7 97 97 NNE 8 13 29.99 1015 3 4 0.00 0.00
10:16 am 10:16 Cloudy with Mist and Fog 64 17.8 62 16.7 93 93 NE 6 9 29.98 1015 4 6 0.00 0.00
10:46 am 10:46 Cloudy with Mist and Fog 64 18 63 17 94 94 ENE 9 15 29.97 1015 6 10 0.00 0.00
10:53 am 10:53 Cloudy 64 17.8 63 17.2 96 96 ENE 10 17 29.99 1016 7 11 0.00 0.00
11:08 am 11:08 Cloudy 64 18 63 17 94 94 NE 7 11 29.98 1015 8 13 0.00 0.00
11:49 am 11:49 Cloudy 66 19 63 17 88 88 NNE 9 15 29.96 1015 8 13 0.00 0.00
11:53 am 11:53 Cloudy 66 18.9 63 17.2 90 90 NE 7 11 29.99 1016 8 13 0.00 0.00
12:01 pm 12:01 Cloudy 66 18.9 63 17.2 90 90 NE 8 13 29.96 1015 8 13 0.00 0.00
12:53 pm 12:53 Cloudy 69 20.6 64 17.8 84 84 NNE 10 17 29.96 1014 10 16 0.00 0.00
1:27 pm 13:27 Cloudy 72 22 64 18 78 78 NNE 13 20 29.89 1012 10 16 0.00 0.00
1:53 pm 13:53 Cloudy 70 21.1 64 17.8 82 82 NNE 13 20 29.93 1014 10 16 0.00 0.00
2:53 pm 14:53 Cloudy 71 21.7 64 17.8 79 79 NE 9 15 29.93 1014 10 16 0.00 0.00
3:53 pm 15:53 Cloudy 70 21.1 64 17.8 82 82 ENE 8 13 29.94 1014 10 16 0.00 0.00
4:53 pm 16:53 Mostly Cloudy 72 22.2 65 18.3 79 79 ENE 10 17 29.92 1013 10 16 0.00 0.00
5:22 pm 17:22 Cloudy 72 22 64 18 78 78 ENE 8 13 29.87 1012 10 16 0.00 0.00
5:53 pm 17:53 Cloudy 72 22.2 65 18.3 79 79 E 8 13 29.91 1013 10 16 0.00 0.00
6:53 pm 18:53 Cloudy 72 22.2 66 18.9 82 82 E 8 13 29.90 1013 10 16 0.00 0.00
7:53 pm 19:53 Cloudy 71 21.7 66 18.9 84 84 E 8 13 29.89 1012 10 16 0.00 0.00
8:13 pm 20:13 Cloudy 70 21.1 66 18.9 87 87 E 8 13 29.86 1011 10 16 0.00 0.00
8:31 pm 20:31 Cloudy 70 21.1 66 18.9 87 87 E 12 19 29.86 1011 10 16 0.00 0.00
8:53 pm 20:53 Cloudy 69 20.6 66 18.9 90 90 E 9 15 29.91 1013 9 14 0.00 0.00
9:53 pm 21:53 Cloudy 69 20.6 66 18.9 90 90 E 10 17 29.92 1013 7 11 0.00 0.00
10:45 pm 22:45 Cloudy with Mist and Fog 68 20 66 18.9 93 93 E 8 13 29.90 1012 2 3 0.00 0.00
10:53 pm 22:53 Cloudy with Mist and Fog 68 20 66 18.9 93 93 E 8 13 29.93 1013 2 2 0.00 0.00
11:29 pm 23:29 Cloudy with Mist and Fog 68 20 66 19 94 94 E 7 11 29.89 1012 1 1 0.00 0.00
11:53 pm 23:53 Cloudy with Mist and Fog 68 20 67 19.4 96 96 E 7 11 29.91 1013 1 1 0.00 0.00

Powered by AerisWeather